EWG4GK EDDL-LGIR

Flight info

Callsign EWG4GK
Flight time N/A
Altitude 37000
Route DODEN7Z/05R DODEN Y853 BOMBI DCT DETEV DCT DINKU M867 XERUM DCT BAVAX DCT RADIZ DCT NEMEK DCT VRANA DCT PETAK DCT PINDO UL607 GIVIS T514 XAVIS
Aircraft A321/M-SDE3FGHIRWY/LB1

Departure

Time N/A
Airport Düsseldorf Airport (EDDL)

Arrival

Time 2026-04-30 20:35
Airport Heraklion International Nikos Kazantzakis Airport (LGIR)
Time Latitude Longitude Altitude Speed Heading
2026-04-30 17:39 50.77217 7.92773 23369 ft 410 kts 145°
2026-04-30 17:41 50.57696 8.12645 26068 ft 423 kts 136°
2026-04-30 17:42 50.53156 8.18620 26698 ft 428 kts 137°
2026-04-30 17:42 50.46246 8.27647 27643 ft 434 kts 137°
2026-04-30 17:43 50.41594 8.33730 28257 ft 437 kts 137°
2026-04-30 17:44 50.34515 8.42927 29145 ft 444 kts 136°
2026-04-30 17:44 50.27340 8.52203 29970 ft 448 kts 136°
2026-04-30 17:46 50.15208 8.67803 31160 ft 452 kts 136°
2026-04-30 17:47 50.05912 8.80808 32166 ft 444 kts 123°
2026-04-30 17:48 50.00256 8.97500 33157 ft 437 kts 112°
2026-04-30 17:48 49.96265 9.10226 33890 ft 436 kts 112°
2026-04-30 17:49 49.90940 9.27162 34770 ft 436 kts 111°
2026-04-30 17:50 49.85600 9.44042 35545 ft 436 kts 112°
2026-04-30 17:51 49.80926 9.56160 36154 ft 445 kts 128°
2026-04-30 17:52 49.74149 9.66106 36709 ft 448 kts 131°
2026-04-30 17:53 49.62778 9.82546 37355 ft 446 kts 131°
2026-04-30 17:54 49.53701 9.95591 37361 ft 447 kts 131°
2026-04-30 17:56 49.35415 10.21639 37382 ft 449 kts 131°
2026-04-30 17:58 49.21264 10.40472 37418 ft 460 kts 144°
2026-04-30 18:00 48.99235 10.60469 37450 ft 461 kts 143°
2026-04-30 18:01 48.85409 10.72926 37400 ft 463 kts 143°
2026-04-30 18:02 48.78047 10.81909 37398 ft 448 kts 125°
2026-04-30 18:02 48.71787 10.92453 37382 ft 449 kts 126°
2026-04-30 18:04 48.59155 11.13512 37377 ft 451 kts 126°
2026-04-30 18:06 48.42240 11.41457 37356 ft 452 kts 126°
2026-04-30 18:08 48.27303 11.65891 37401 ft 454 kts 126°
2026-04-30 18:10 48.08570 11.91797 37366 ft 459 kts 130°
2026-04-30 18:11 47.92073 12.14311 37357 ft 460 kts 131°
2026-04-30 18:13 47.80204 12.30336 37366 ft 461 kts 131°
2026-04-30 18:14 47.68286 12.46308 37354 ft 462 kts 132°
2026-04-30 18:15 47.54162 12.65764 37361 ft 461 kts 130°
2026-04-30 18:16 47.44971 12.78870 37330 ft 461 kts 131°
2026-04-30 18:17 47.40308 12.85392 37324 ft 462 kts 131°
2026-04-30 18:18 47.33297 12.95168 37331 ft 462 kts 131°
2026-04-30 18:18 47.28631 13.01700 37345 ft 463 kts 131°
2026-04-30 18:19 47.23951 13.08236 37345 ft 464 kts 131°
2026-04-30 18:19 47.19247 13.14755 37329 ft 464 kts 131°
2026-04-30 18:20 47.14543 13.21264 37329 ft 465 kts 131°
2026-04-30 18:20 47.09827 13.27789 37365 ft 465 kts 132°
2026-04-30 18:21 47.05143 13.34242 37319 ft 465 kts 132°
2026-04-30 18:21 47.00419 13.40726 37313 ft 466 kts 132°
2026-04-30 18:22 46.95685 13.47215 37309 ft 466 kts 132°
2026-04-30 18:22 46.89344 13.55904 37321 ft 467 kts 132°
2026-04-30 18:23 46.84621 13.62344 37355 ft 468 kts 133°
2026-04-30 18:23 46.79851 13.68815 37350 ft 467 kts 133°
2026-04-30 18:24 46.72687 13.78517 37355 ft 469 kts 133°
2026-04-30 18:25 46.67899 13.84981 37351 ft 469 kts 134°
2026-04-30 18:25 46.60718 13.94665 37383 ft 469 kts 134°
2026-04-30 18:26 46.53547 14.04281 37376 ft 469 kts 134°
2026-04-30 18:27 46.46336 14.13907 37352 ft 470 kts 134°
2026-04-30 18:28 46.39111 14.23537 37367 ft 471 kts 135°
2026-04-30 18:28 46.31849 14.33162 37348 ft 472 kts 135°
2026-04-30 18:29 46.22145 14.45976 37339 ft 473 kts 135°
2026-04-30 18:30 46.12384 14.58800 37355 ft 475 kts 135°
2026-04-30 18:31 46.05074 14.68379 37364 ft 476 kts 135°
2026-04-30 18:32 45.97719 14.77973 37366 ft 476 kts 136°
2026-04-30 18:33 45.90340 14.87554 37385 ft 477 kts 136°
2026-04-30 18:33 45.82948 14.97113 37387 ft 477 kts 136°
2026-04-30 18:34 45.75545 15.06653 37388 ft 477 kts 136°
2026-04-30 18:35 45.70593 15.13010 37402 ft 477 kts 136°
2026-04-30 18:35 45.65649 15.19354 37406 ft 478 kts 136°
2026-04-30 18:36 45.58218 15.28841 37390 ft 478 kts 136°
2026-04-30 18:37 45.50788 15.38350 37379 ft 478 kts 136°
2026-04-30 18:37 45.45844 15.44701 37378 ft 478 kts 136°
2026-04-30 18:38 45.40887 15.51027 37387 ft 479 kts 136°
2026-04-30 18:38 45.35922 15.57347 37374 ft 479 kts 137°
2026-04-30 18:39 45.30951 15.63654 37400 ft 479 kts 137°
2026-04-30 18:39 45.25971 15.69954 37371 ft 479 kts 137°
2026-04-30 18:40 45.20985 15.76254 37368 ft 480 kts 137°
2026-04-30 18:40 45.15994 15.82560 37374 ft 481 kts 137°
2026-04-30 18:41 45.10992 15.88854 37370 ft 481 kts 137°
2026-04-30 18:41 45.05980 15.95130 37386 ft 481 kts 137°
2026-04-30 18:42 45.00961 16.01400 37367 ft 481 kts 137°
2026-04-30 18:42 44.93464 16.10779 37365 ft 482 kts 137°
2026-04-30 18:45 44.65709 16.45091 37356 ft 483 kts 138°
2026-04-30 18:46 44.60650 16.51319 37363 ft 483 kts 139°
2026-04-30 18:46 44.55580 16.57521 37341 ft 484 kts 139°
2026-04-30 18:47 44.50500 16.63716 37363 ft 484 kts 139°
2026-04-30 18:47 44.45439 16.69887 37352 ft 485 kts 139°
2026-04-30 18:48 44.40339 16.76089 37374 ft 485 kts 139°
2026-04-30 18:48 44.35234 16.82275 37374 ft 485 kts 139°
2026-04-30 18:49 44.30126 16.88444 37363 ft 485 kts 139°
2026-04-30 18:49 44.25014 16.94610 37378 ft 485 kts 139°
2026-04-30 18:50 44.19904 17.00761 37386 ft 485 kts 140°
2026-04-30 18:50 44.14818 17.06866 37372 ft 485 kts 140°
2026-04-30 18:51 44.09708 17.12999 37371 ft 485 kts 140°
2026-04-30 18:51 44.04588 17.19113 37351 ft 485 kts 140°
2026-04-30 18:52 43.99456 17.25235 37369 ft 486 kts 140°
2026-04-30 18:52 43.94321 17.31354 37353 ft 486 kts 140°
2026-04-30 18:53 43.89221 17.37402 37341 ft 485 kts 140°
2026-04-30 18:53 43.84081 17.43483 37318 ft 485 kts 141°
2026-04-30 18:54 43.78941 17.49553 37328 ft 486 kts 141°
2026-04-30 18:54 43.73663 17.55371 37311 ft 485 kts 148°
2026-04-30 18:55 43.68069 17.60588 37310 ft 485 kts 148°
2026-04-30 18:55 43.59667 17.68385 37270 ft 485 kts 148°
2026-04-30 18:56 43.51251 17.76179 37294 ft 486 kts 148°
2026-04-30 18:57 43.42827 17.83966 37243 ft 486 kts 148°
2026-04-30 18:57 43.37200 17.89139 37238 ft 487 kts 148°
2026-04-30 18:58 43.28740 17.96888 37238 ft 487 kts 149°
2026-04-30 18:59 43.20292 18.04614 37243 ft 487 kts 148°
2026-04-30 19:00 43.09023 18.14908 37232 ft 487 kts 149°
2026-04-30 19:01 42.97737 18.25118 37236 ft 489 kts 149°
2026-04-30 19:02 42.89231 18.32806 37222 ft 489 kts 149°
2026-04-30 19:03 42.77860 18.43054 37210 ft 490 kts 149°
2026-04-30 19:04 42.66444 18.53253 37189 ft 491 kts 150°
2026-04-30 19:05 42.55035 18.63440 37193 ft 491 kts 150°
2026-04-30 19:06 42.43615 18.73580 37174 ft 491 kts 150°
2026-04-30 19:06 42.36008 18.80311 37208 ft 491 kts 150°
2026-04-30 19:07 42.27439 18.87863 37206 ft 490 kts 150°
2026-04-30 19:08 42.16012 18.97908 37190 ft 490 kts 151°
2026-04-30 19:09 42.07431 19.05418 37194 ft 490 kts 151°
2026-04-30 19:09 42.01703 19.10413 37199 ft 490 kts 151°
2026-04-30 19:10 41.90231 19.20382 37183 ft 491 kts 151°
2026-04-30 19:11 41.81620 19.27864 37182 ft 492 kts 152°
2026-04-30 19:12 41.76080 19.33284 37150 ft 498 kts 140°
2026-04-30 19:12 41.71106 19.39756 37155 ft 499 kts 139°
2026-04-30 19:13 41.61185 19.52655 37168 ft 499 kts 140°
2026-04-30 19:14 41.56202 19.59098 37156 ft 498 kts 140°
2026-04-30 19:14 41.51189 19.65571 37122 ft 498 kts 140°
2026-04-30 19:15 41.46237 19.71951 37125 ft 498 kts 140°
2026-04-30 19:15 41.38760 19.81557 37129 ft 498 kts 140°
2026-04-30 19:16 41.33778 19.87956 37140 ft 497 kts 140°
2026-04-30 19:17 41.26297 19.97521 37153 ft 497 kts 141°
2026-04-30 19:17 41.18804 20.07046 37146 ft 497 kts 141°
2026-04-30 19:18 41.11311 20.16556 37158 ft 497 kts 141°
2026-04-30 19:19 41.06311 20.22891 37184 ft 497 kts 141°
2026-04-30 19:19 40.98800 20.32373 37176 ft 497 kts 141°
2026-04-30 19:20 40.93791 20.38675 37197 ft 497 kts 141°
2026-04-30 19:21 40.86287 20.48097 37209 ft 496 kts 141°
2026-04-30 19:22 40.76272 20.60617 37204 ft 495 kts 141°
2026-04-30 19:23 40.61297 20.79247 37185 ft 494 kts 141°
2026-04-30 19:24 40.53765 20.88586 37197 ft 493 kts 141°
2026-04-30 19:25 40.41171 21.03703 37176 ft 490 kts 144°
2026-04-30 19:26 40.30849 21.15415 37182 ft 490 kts 143°
2026-04-30 19:27 40.23168 21.24254 37174 ft 490 kts 143°
2026-04-30 19:28 40.15479 21.33067 37147 ft 489 kts 143°
2026-04-30 19:29 40.05219 21.44740 37153 ft 489 kts 143°
2026-04-30 19:30 39.94952 21.56366 37145 ft 488 kts 143°
2026-04-30 19:31 39.84722 21.67935 37131 ft 488 kts 143°
2026-04-30 19:31 39.77014 21.76601 37134 ft 488 kts 143°
2026-04-30 19:32 39.71875 21.82356 37125 ft 488 kts 143°
2026-04-30 19:32 39.66703 21.88145 37131 ft 487 kts 143°
2026-04-30 19:33 39.61578 21.93883 37112 ft 486 kts 143°
2026-04-30 19:33 39.56481 21.99570 37120 ft 486 kts 143°
2026-04-30 19:34 39.51347 22.05279 37121 ft 486 kts 143°
2026-04-30 19:35 39.43650 22.13838 37113 ft 486 kts 143°
2026-04-30 19:35 39.38522 22.19519 37117 ft 485 kts 143°
2026-04-30 19:36 39.33386 22.25190 37113 ft 485 kts 143°
2026-04-30 19:36 39.25685 22.33684 37114 ft 485 kts 143°
2026-04-30 19:37 39.20551 22.39332 37106 ft 485 kts 143°
2026-04-30 19:37 39.15415 22.44973 37114 ft 485 kts 143°
2026-04-30 19:38 39.10278 22.50593 37098 ft 484 kts 143°
2026-04-30 19:38 39.05150 22.56194 37115 ft 483 kts 143°
2026-04-30 19:39 39.00051 22.61755 37114 ft 483 kts 143°
2026-04-30 19:39 38.94932 22.67342 37110 ft 482 kts 143°
2026-04-30 19:40 38.89819 22.72901 37105 ft 482 kts 143°
2026-04-30 19:40 38.84702 22.78451 37096 ft 481 kts 143°
2026-04-30 19:41 38.79596 22.83983 37089 ft 480 kts 143°
2026-04-30 19:41 38.74486 22.89494 37093 ft 479 kts 143°
2026-04-30 19:42 38.69381 22.94990 37096 ft 479 kts 143°
2026-04-30 19:42 38.64285 23.00481 37086 ft 479 kts 143°
2026-04-30 19:43 38.59194 23.05964 37086 ft 478 kts 143°
2026-04-30 19:44 38.51580 23.14115 37066 ft 478 kts 143°
2026-04-30 19:44 38.46483 23.19568 37072 ft 478 kts 143°
2026-04-30 19:45 38.41378 23.25020 37076 ft 478 kts 143°
2026-04-30 19:45 38.36270 23.30455 37077 ft 478 kts 143°
2026-04-30 19:46 38.31156 23.35890 37071 ft 479 kts 143°
2026-04-30 19:46 38.26046 23.41319 37068 ft 478 kts 143°
2026-04-30 19:47 38.20932 23.46734 37059 ft 479 kts 144°
2026-04-30 19:47 38.15810 23.52152 37049 ft 479 kts 143°
2026-04-30 19:48 38.10686 23.57568 37041 ft 479 kts 144°
2026-04-30 19:48 38.05553 23.62964 37044 ft 479 kts 144°
2026-04-30 19:49 38.01278 23.67450 37042 ft 479 kts 144°
2026-04-30 19:49 37.93568 23.75534 37047 ft 480 kts 144°
2026-04-30 19:50 37.88508 23.81067 37063 ft 483 kts 136°
2026-04-30 19:50 37.84131 23.87546 37069 ft 485 kts 133°
2026-04-30 19:51 37.79786 23.94081 37064 ft 485 kts 133°
2026-04-30 19:51 37.75426 24.00596 37057 ft 485 kts 133°
2026-04-30 19:52 37.71060 24.07094 37041 ft 485 kts 133°
2026-04-30 19:52 37.66702 24.13582 37041 ft 483 kts 133°
2026-04-30 19:53 37.62356 24.20045 37031 ft 482 kts 133°
2026-04-30 19:53 37.58017 24.26470 37029 ft 481 kts 134°
2026-04-30 19:54 37.53064 24.31976 37028 ft 471 kts 152°
2026-04-30 19:54 37.47504 24.36335 37023 ft 471 kts 152°
2026-04-30 19:55 37.41940 24.40694 37019 ft 471 kts 152°
2026-04-30 19:55 37.36416 24.45022 37003 ft 471 kts 152°
2026-04-30 19:56 37.30855 24.49386 37004 ft 471 kts 152°
2026-04-30 19:56 37.25290 24.53735 37008 ft 471 kts 152°
2026-04-30 19:57 37.19715 24.58080 37012 ft 471 kts 152°
2026-04-30 19:57 37.14131 24.62425 36994 ft 471 kts 152°
2026-04-30 19:58 37.08550 24.66758 37005 ft 472 kts 152°
2026-04-30 19:58 37.02970 24.71096 37012 ft 472 kts 152°
2026-04-30 19:59 36.97417 24.75401 37019 ft 472 kts 152°
2026-04-30 20:00 36.89020 24.81878 37019 ft 473 kts 152°
2026-04-30 20:00 36.83423 24.86215 36989 ft 474 kts 153°
2026-04-30 20:01 36.74979 24.92740 36992 ft 476 kts 153°
2026-04-30 20:01 36.69393 24.97042 36461 ft 473 kts 153°
2026-04-30 20:02 36.63504 24.99440 36089 ft 426 kts 186°
2026-04-30 20:02 36.60633 24.99076 35898 ft 406 kts 199°
2026-04-30 20:03 36.55637 24.96474 35183 ft 379 kts 220°
2026-04-30 20:03 36.53646 24.94413 34777 ft 368 kts 231°
2026-04-30 20:03 36.52071 24.91959 34369 ft 360 kts 242°
2026-04-30 20:03 36.50947 24.89221 33946 ft 352 kts 252°
2026-04-30 20:04 36.50285 24.86319 33478 ft 347 kts 262°
2026-04-30 20:04 36.50069 24.83352 33004 ft 344 kts 272°
2026-04-30 20:04 36.50290 24.80412 32546 ft 341 kts 281°
2026-04-30 20:05 36.51995 24.74963 31637 ft 339 kts 301°
2026-04-30 20:05 36.53411 24.72618 31172 ft 340 kts 309°
2026-04-30 20:05 36.55372 24.67168 28772 ft 370 kts 270°
2026-04-30 20:06 36.54899 24.63980 27622 ft 384 kts 250°
2026-04-30 20:06 36.53485 24.61111 26532 ft 399 kts 229°
2026-04-30 20:06 36.51205 24.59061 25492 ft 415 kts 206°
2026-04-30 20:06 36.48362 24.58273 24663 ft 427 kts 183°
2026-04-30 20:07 36.45435 24.58962 24182 ft 436 kts 159°
2026-04-30 20:07 36.42849 24.60972 23993 ft 444 kts 142°
2026-04-30 20:07 36.38585 24.66591 24008 ft 450 kts 130°
2026-04-30 20:08 36.36654 24.69648 24006 ft 450 kts 129°
2026-04-30 20:08 36.34705 24.72682 24003 ft 450 kts 131°
2026-04-30 20:08 36.32682 24.75646 24007 ft 449 kts 133°
2026-04-30 20:08 36.30584 24.78523 24012 ft 449 kts 135°
2026-04-30 20:09 36.28432 24.81329 24007 ft 449 kts 136°
2026-04-30 20:09 36.26249 24.84103 24007 ft 449 kts 136°
2026-04-30 20:09 36.21890 24.89650 24016 ft 449 kts 135°
2026-04-30 20:10 36.17582 24.95262 24008 ft 450 kts 135°
2026-04-30 20:10 36.15442 24.98082 24015 ft 450 kts 135°
2026-04-30 20:10 36.13299 25.00910 24021 ft 450 kts 135°
2026-04-30 20:11 36.09013 25.06535 24019 ft 449 kts 135°
2026-04-30 20:11 36.06864 25.09340 24020 ft 449 kts 135°
2026-04-30 20:11 36.04713 25.12136 24020 ft 449 kts 135°
2026-04-30 20:12 36.00405 25.17725 24024 ft 449 kts 135°
2026-04-30 20:12 35.98253 25.20522 24027 ft 449 kts 135°
2026-04-30 20:12 35.96098 25.23322 24028 ft 449 kts 135°
2026-04-30 20:13 35.93945 25.26114 24017 ft 449 kts 135°
2026-04-30 20:13 35.91789 25.28909 24023 ft 449 kts 135°
2026-04-30 20:13 35.89637 25.31695 24020 ft 449 kts 135°
2026-04-30 20:13 35.87478 25.34486 24022 ft 449 kts 135°
2026-04-30 20:14 35.85350 25.37236 24009 ft 449 kts 135°
2026-04-30 20:14 35.83188 25.40030 24013 ft 450 kts 135°
2026-04-30 20:14 35.81042 25.42801 23592 ft 445 kts 135°
2026-04-30 20:14 35.78918 25.45543 22872 ft 440 kts 135°
2026-04-30 20:15 35.76817 25.48253 22192 ft 435 kts 135°
2026-04-30 20:15 35.74734 25.50933 21768 ft 425 kts 135°
2026-04-30 20:15 35.72731 25.53508 21637 ft 409 kts 135°
2026-04-30 20:15 35.70801 25.55987 21504 ft 393 kts 135°
2026-04-30 20:16 35.68910 25.58334 21370 ft 377 kts 142°
2026-04-30 20:16 35.66757 25.60000 21242 ft 357 kts 161°
2026-04-30 20:16 35.64435 25.60782 21114 ft 337 kts 178°
2026-04-30 20:16 35.62166 25.60765 21021 ft 315 kts 192°
2026-04-30 20:17 35.60133 25.60131 20700 ft 292 kts 206°
2026-04-30 20:17 35.58375 25.58997 20009 ft 281 kts 219°
2026-04-30 20:17 35.56902 25.57438 19035 ft 281 kts 231°
2026-04-30 20:17 35.55759 25.55490 18083 ft 281 kts 244°
2026-04-30 20:18 35.55000 25.53293 17143 ft 277 kts 256°
2026-04-30 20:18 35.54646 25.50991 16267 ft 273 kts 267°
2026-04-30 20:18 35.54697 25.48683 15428 ft 269 kts 279°
2026-04-30 20:18 35.55133 25.46473 14622 ft 265 kts 290°
2026-04-30 20:19 35.55930 25.44447 13845 ft 262 kts 302°
2026-04-30 20:19 35.56638 25.43247 13283 ft 260 kts 309°
2026-04-30 20:19 35.58384 25.41263 12193 ft 257 kts 321°
2026-04-30 20:19 35.59846 25.40017 11381 ft 255 kts 328°
2026-04-30 20:20 35.61510 25.39342 10794 ft 250 kts 351°
2026-04-30 20:20 35.63244 25.39559 10183 ft 250 kts 15°
2026-04-30 20:20 35.64711 25.40657 9504 ft 255 kts 41°
2026-04-30 20:20 35.65650 25.42514 9068 ft 261 kts 68°
2026-04-30 20:21 35.66186 25.44673 9006 ft 266 kts 70°
2026-04-30 20:21 35.66731 25.46855 9022 ft 267 kts 70°
2026-04-30 20:21 35.67277 25.49022 8861 ft 263 kts 70°
2026-04-30 20:21 35.67809 25.51134 8660 ft 252 kts 70°
2026-04-30 20:22 35.68163 25.53204 8453 ft 245 kts 82°
2026-04-30 20:22 35.68154 25.55285 8122 ft 244 kts 95°
2026-04-30 20:22 35.67790 25.57316 7767 ft 243 kts 108°
2026-04-30 20:22 35.67095 25.59203 7411 ft 242 kts 121°
2026-04-30 20:23 35.66106 25.60862 7068 ft 240 kts 134°
2026-04-30 20:23 35.64877 25.62230 6721 ft 237 kts 144°
2026-04-30 20:23 35.63588 25.63490 6381 ft 236 kts 143°
2026-04-30 20:23 35.62310 25.64743 6048 ft 233 kts 145°
2026-04-30 20:24 35.60908 25.65661 5989 ft 227 kts 165°
2026-04-30 20:24 35.59365 25.65951 5994 ft 224 kts 185°
2026-04-30 20:24 35.57855 25.65606 5996 ft 219 kts 204°
2026-04-30 20:24 35.56542 25.64703 5996 ft 215 kts 222°
2026-04-30 20:25 35.54948 25.61737 5999 ft 208 kts 257°
2026-04-30 20:25 35.54749 25.59990 6000 ft 207 kts 266°
2026-04-30 20:26 35.54009 25.56595 5985 ft 208 kts 248°
2026-04-30 20:26 35.52608 25.53735 5626 ft 187 kts 240°
2026-04-30 20:26 35.51909 25.52395 5254 ft 186 kts 240°
2026-04-30 20:27 35.50514 25.49713 4420 ft 189 kts 239°
2026-04-30 20:27 35.49098 25.46999 3597 ft 188 kts 239°
2026-04-30 20:28 35.47755 25.44430 3105 ft 171 kts 239°
2026-04-30 20:28 35.46470 25.41962 2998 ft 173 kts 239°
2026-04-30 20:29 35.45063 25.39646 2820 ft 166 kts 227°
2026-04-30 20:30 35.42044 25.37510 2494 ft 163 kts 206°
2026-04-30 20:30 35.38879 25.36275 2520 ft 159 kts 187°
2026-04-30 20:31 35.36033 25.36105 2210 ft 150 kts 198°
2026-04-30 20:32 35.34030 25.33378 2304 ft 146 kts 242°
2026-04-30 20:32 35.33209 25.30700 2223 ft 144 kts 262°
2026-04-30 20:33 35.33143 25.29480 1913 ft 142 kts 272°
2026-04-30 20:33 35.33341 25.27476 1344 ft 141 kts 272°
2026-04-30 20:33 35.33409 25.26280 1107 ft 141 kts 273°
2026-04-30 20:34 35.33577 25.23885 911 ft 143 kts 272°
2026-04-30 20:34 35.33738 25.21458 520 ft 142 kts 272°
2026-04-30 20:35 35.33828 25.20250 301 ft 142 kts 271°
2026-04-30 20:35 35.33908 25.19045 138 ft 139 kts 272°
2026-04-30 20:35 35.33999 25.17644 96 ft 38 kts 275°
2026-04-30 20:36 35.34021 25.17330 85 ft 27 kts 275°
2026-04-30 20:36 35.34001 25.17128 81 ft 22 kts 246°
2026-04-30 20:36 35.33937 25.17129 80 ft 6 kts 89°
2026-04-30 20:37 35.33935 25.17178 80 ft 6 kts 93°
2026-04-30 20:37 35.33932 25.17225 82 ft 6 kts 93°
2026-04-30 20:37 35.33929 25.17272 83 ft 5 kts 98°
2026-04-30 20:37 35.33906 25.17276 82 ft 5 kts 202°
2026-04-30 20:38 35.33869 25.17275 86 ft 0 kts 167°